FALCON 9 R/B, 61911

Orbit data source: Space-Track

FALCON 9 R/B, 61911 is space debris in HEO originally from a launch on Mon, 11 Nov 2024 UTC launched from the Air Force Eastern Test Range (AFETR). Debris objects in space refer to the collection of defunct objects orbiting the Earth. Examples of debris include non-operational satellites, rocket bodies, and fragments generated from explosions, collisions, or faulty payload assembly.

Loading next visibility...
Identifier
61911, 2024-206B
Orbit
HEO
Country
Flag of USUS
Related business
Manufacturer
SpaceX
Mission
Spacecraft
Bus & Motor
F9ST2, Unknown motor
Mass
~4,000 kg wet, ~4,000 kg dry
Launch date (UTC)
2024-11-11 (2 years ago)
Launch vehicle
Unknown
Launch site
Air Force Eastern Test Range (AFETR)
Object type
Payload
Rocket body
Debris
Shape & HBR
Cyl, 8.0 m
Radar Cross Section
39.980 m², Large (>1 m²)

Expand to show TLE details & history
Last TLE update: 17 hours ago

TLE from 17 hours ago
0 FALCON 9 R/B
1 61911U 24206B   26258.06352095  .00025315 -18436-6  14221-2 0  9992
2 61911  27.0292 242.8138 7095500 258.2826  20.9464  2.55164697 16084
Epoch: 2026-09-15T01:31Z
TLE epoch observation values (Epoch: 2026-09-15T01:31:28.210Z)
Latitude
-0.00051°
Longitude
-134.19171°
Altitude
6,715.912 km
Speed
6.577 km/s
True Right ascension
16h 10m 50s
True Declination
0° 00' 02"
Sunlit
Object was in daylight at epoch
Visualization orbit readout
Latitude
Unknown
Longitude
Unknown
Altitude
Unknown
Speed
Unknown
Apparent Right ascension
Unknown
Apparent Declination
Unknown
Sunlit
N/A
Visualization observer readout
Local Sidereal Time
10:56:03
Azimuth
Unknown
Elevation
Unknown
Doppler factor
Unknown
Orbital elements
Apogee altitude
32,301.043 km
Perigee altitude
193.398 km
Semi-major axis
22,625.358 km
Eccentricity
0.70955
Inclination
27.0292°
RAAN
242.8138°
Arg. of periapsis
258.2826°
True anomaly
101.71583°
Mean anomaly
20.9464°
Eccentric anomaly
53.7186°
Mean motion
0.63775 °/min
Orbital period
564.49 mins
BSTAR
0.0014221
Loading maneuver chart data...
Computing Atmospheric mass density...
Loading historical data...
Loading historical data...
Loading historical data...
Loading historical data...
Loading historical data...
Loading historical data...
Loading historical data...
Other satellites on launch #206 in the year 2024 (2024-11-11 UTC)

Documentation

Showing up to 5 results
|